JR0ZFO-13 Weather Reports


time (UTC)temp
F
wind
direction
speed
knots
gust
knots
rain 1hr
in
rain 24hr
in
rain mn
in
humidity
%
barometer
mb
20260502170324 52 65 0.0 0.9 0.00 0.75 0.00 81 1015.9
20260502164344 51 64 0.0 0.0 0.00 0.75 0.00 83 1016.3
20260502163822 51 64 0.0 0.0 0.00 0.75 0.00 83 1016.4
20260502163319 51 64 0.0 0.0 0.00 0.75 0.00 82 1016.4
20260502162818 51 64 0.0 0.0 0.00 0.75 0.00 82 1016.4
20260502162316 51 64 0.0 0.0 0.00 0.75 0.00 82 1016.3
20260502161814 51 64 0.0 0.0 0.00 0.98 0.00 81 1016.3
20260502161313 51 64 0.0 0.0 0.00 0.98 0.00 81 1016.4
20260502160832 51 64 0.0 0.0 0.00 0.98 0.00 82 1016.5
20260502160353 51 64 0.0 0.0 0.00 0.98 0.00 82 1016.6
20260502152315 50 64 0.0 0.0 0.00 0.98 0.00 84 1016.4
20260502151834 49 64 0.0 0.0 0.00 0.98 0.20 84 1016.5
20260502151333 49 64 0.0 0.0 0.00 0.98 0.20 84 1016.7
20260502150851 50 64 0.0 0.0 0.00 0.98 0.20 83 1016.7
20260502150328 50 64 0.0 0.0 0.00 0.98 0.20 83 1016.8
20260502130333 53 193 0.0 0.0 0.00 0.98 0.20 77 1016.0
20260502123325 55 193 0.0 0.0 0.00 0.98 0.20 73 1016.0
20260502122824 55 193 0.0 0.0 0.00 0.98 0.20 72 1016.0
20260502122322 56 193 0.0 0.0 0.00 0.98 0.20 72 1015.8
20260502121820 56 189 0.0 0.0 0.00 0.98 0.20 73 1015.9
20260502121318 56 189 0.0 0.0 0.00 0.98 0.20 73 1015.8
20260502120815 56 189 0.0 0.0 0.00 0.98 0.20 72 1015.8
20260502120318 56 191 0.0 0.0 0.00 0.98 0.20 72 1015.9
20260502115815 56 166 0.0 0.0 0.00 0.98 0.20 71 1015.7
20260502115313 56 165 0.0 0.0 0.00 0.98 0.20 71 1015.5
20260502114832 56 163 0.0 0.0 0.00 0.98 0.20 71 1015.5
20260502114329 56 163 0.0 0.0 0.00 0.98 0.20 72 1015.4
20260502113828 56 163 0.0 0.0 0.00 0.98 0.20 72 1015.2
20260502113351 57 160 0.0 0.0 0.00 0.98 0.20 72 1015.2
20260502112828 57 158 0.0 0.9 0.00 0.98 0.20 71 1015.1
20260502112346 58 158 0.0 0.9 0.00 0.98 0.20 71 1015.1
20260502111844 58 65 0.0 0.0 0.00 0.98 0.20 69 1015.1
20260502111321 59 65 0.0 0.9 0.00 0.98 0.20 69 1015.0
20260502110819 59 65 0.0 1.7 0.00 0.98 0.20 68 1015.0
20260502110318 60 52 0.0 2.6 0.00 0.98 0.20 67 1015.0
20260502105838 60 52 1.7 3.5 0.00 0.98 0.20 67 1014.9
20260502105316 60 39 0.9 3.5 0.00 0.98 0.20 67 1014.8
20260502104815 60 44 0.0 0.0 0.00 0.98 0.20 67 1014.8
20260502104314 60 12 0.0 0.0 0.00 0.98 0.20 66 1014.8
20260502103833 60 58 0.0 0.0 0.00 0.98 0.20 67 1014.5
20260502103329 60 224 0.0 0.0 0.00 0.98 0.20 67 1014.4
20260502102827 60 224 0.0 0.0 0.00 0.98 0.20 67 1014.3
20260502102326 61 224 0.0 0.0 0.00 0.98 0.20 66 1014.3
20260502101845 61 224 0.0 0.0 0.00 2.44 0.20 66 1014.3
20260502101343 62 224 0.0 0.0 0.00 2.44 0.20 64 1014.2
20260502100820 62 224 0.0 0.0 0.00 2.44 0.20 64 1014.3
20260502100339 62 202 0.0 0.0 0.00 2.44 0.20 63 1014.2
20260502091327 66 35 1.7 3.5 0.00 4.49 0.20 51 1013.4
20260502090826 66 50 0.9 3.5 0.00 4.49 0.20 51 1013.3
20260502090325 66 302 0.9 4.3 0.00 4.49 0.20 51 1013.3
20260502071318 70 76 5.2 13.0 0.00 8.43 0.20 42 1012.2
20260502070816 70 29 6.1 16.5 0.00 8.43 0.20 42 1012.1
20260502070315 70 60 7.8 18.2 0.00 8.43 0.20 41 1012.1
20260502065815 71 16 4.3 13.0 0.00 8.43 0.20 41 1012.0
20260502065314 71 25 7.0 13.0 0.00 8.43 0.20 40 1012.0
20260502064833 71 70 7.8 14.8 0.00 8.43 0.20 39 1011.9
20260502064331 71 35 6.1 20.0 0.00 8.43 0.20 39 1012.0
20260502063829 70 71 7.0 20.0 0.00 8.43 0.20 40 1012.1
20260502063327 70 257 7.0 16.5 0.00 8.43 0.20 40 1012.1
20260502062847 70 88 8.7 16.5 0.00 8.43 0.20 39 1011.9
20260502062324 71 52 7.0 14.8 0.00 8.43 0.20 39 1011.9
20260502061822 71 22 7.8 14.8 0.00 8.43 0.20 39 1012.1
20260502061325 70 16 7.8 16.5 0.00 8.43 0.20 39 1012.1
20260502060824 71 20 7.8 16.5 0.00 8.43 0.20 39 1011.9
20260502060322 71 92 7.0 13.9 0.00 8.43 0.20 39 1012.0
20260502055822 71 124 6.1 14.8 0.00 8.43 0.20 40 1011.7
20260502055320 71 123 7.8 16.5 0.00 8.43 0.20 40 1011.8
20260502054818 71 7 6.1 16.5 0.00 8.43 0.20 39 1011.7
20260502054317 71 46 7.0 14.8 0.00 8.43 0.20 39 1011.8
20260502053813 70 44 7.0 17.4 0.00 8.43 0.20 39 1011.8
20260502053312 71 171 9.6 17.4 0.00 8.43 0.20 38 1011.6
20260502052833 71 78 7.0 14.8 0.00 8.43 0.20 39 1011.5
20260502052352 71 44 7.0 17.4 0.00 8.43 0.20 39 1011.6
20260502051829 71 106 9.6 17.4 0.00 8.43 0.20 38 1011.6
20260502051328 71 57 6.1 16.5 0.00 8.43 0.20 37 1011.5
20260502050826 71 68 10.4 18.2 0.00 8.43 0.20 38 1011.4
20260502050324 71 36 11.3 18.2 0.00 8.43 0.20 38 1011.3
20260502045823 71 27 8.7 19.1 0.00 8.43 0.20 39 1011.2
20260502045322 70 65 9.6 19.1 0.00 8.43 0.20 38 1011.2
20260502044821 71 358 5.2 19.1 0.00 8.43 0.20 39 1011.3
20260502044319 71 63 8.7 16.5 0.00 8.43 0.20 39 1011.4
20260502043817 71 40 6.1 16.5 0.00 8.43 0.20 39 1011.5
20260502043337 71 61 8.7 15.6 0.00 8.43 0.20 38 1011.6
20260502042819 71 116 6.1 16.5 0.00 8.43 0.20 40 1011.5
20260502042317 71 39 8.7 23.5 0.00 8.43 0.20 38 1011.2
20260502041816 71 49 5.2 23.5 0.00 8.43 0.20 40 1011.3
20260502041314 71 49 7.8 19.1 0.00 8.43 0.20 39 1011.0
20260502040813 71 53 7.8 17.4 0.00 8.43 0.20 39 1011.1
20260502040331 71 338 7.8 17.4 0.00 8.43 0.20 38 1011.3
20260502035831 70 51 7.8 16.5 0.00 8.43 0.20 39 1011.2
20260502035330 70 43 7.0 15.6 0.00 8.43 0.20 39 1011.2
20260502034830 71 24 6.1 15.6 0.00 8.43 0.20 39 1011.1
20260502034329 70 334 6.1 15.6 0.00 8.43 0.20 39 1011.1
20260502033849 70 25 7.0 15.6 0.00 8.43 0.20 39 1011.2
20260502033327 70 84 8.7 15.6 0.00 8.43 0.20 39 1011.2
20260502032825 70 42 7.8 15.6 0.00 8.43 0.20 39 1011.1
20260502032324 69 32 8.7 16.5 0.00 8.43 0.20 38 1011.0
20260502031823 69 44 7.8 15.6 0.00 8.46 0.20 38 1011.0
20260502031321 69 58 7.8 14.8 0.00 8.46 0.20 38 1011.2
20260502030819 70 55 7.0 14.8 0.00 8.46 0.20 40 1011.2
20260502030316 69 158 7.8 15.6 0.00 8.46 0.20 39 1011.0
20260502025814 69 97 5.2 13.9 0.00 8.46 0.20 39 1011.0
20260502025313 69 51 6.1 13.0 0.00 8.46 0.20 39 1010.9
20260502024833 69 65 6.1 17.4 0.00 8.46 0.20 39 1010.8
20260502024332 69 51 7.8 17.4 0.00 8.46 0.20 39 1010.8
20260502023813 69 60 5.2 18.2 0.00 8.46 0.20 39 1010.7
20260502023349 69 143 9.6 18.2 0.00 8.46 0.20 38 1010.7
20260502022848 69 54 4.3 16.5 0.00 8.46 0.20 39 1010.8
20260502022330 69 10 6.1 18.2 0.00 8.46 0.20 39 1010.7
20260502021828 69 183 8.7 18.2 0.00 8.46 0.20 37 1010.9
20260502021346 69 51 6.1 13.9 0.00 8.46 0.20 39 1010.9
20260502020824 68 123 7.0 17.4 0.00 8.46 0.20 39 1010.5
20260502020341 68 72 7.0 16.5 0.00 8.46 0.20 38 1010.4
20260502015817 68 44 6.1 17.4 0.00 8.46 0.20 38 1010.6
20260502015314 68 124 7.0 17.4 0.00 8.46 0.20 38 1010.6
20260502014812 68 58 6.1 20.0 0.00 8.46 0.20 39 1010.5
20260502014332 67 63 5.2 20.0 0.00 8.46 0.20 39 1010.5
20260502013851 68 297 8.7 17.4 0.00 8.46 0.20 40 1010.5
20260502013328 67 57 8.7 14.8 0.00 8.46 0.20 39 1010.5
20260502012828 67 39 6.1 14.8 0.00 8.46 0.20 40 1010.5
20260502012349 67 134 5.2 12.2 0.00 8.46 0.20 40 1010.3
20260502011825 67 64 4.3 11.3 0.00 8.70 0.20 42 1010.3
20260502011325 67 58 5.2 10.4 0.00 8.70 0.20 41 1010.4
20260502010822 66 57 2.6 11.3 0.00 8.70 0.20 42 1010.3
20260502010320 66 27 6.1 11.3 0.00 8.70 0.20 41 1010.3
20260502005817 66 35 5.2 11.3 0.00 8.70 0.20 42 1010.3
20260502005314 66 44 2.6 10.4 0.00 8.70 0.20 43 1010.2
20260502004813 66 104 2.6 12.2 0.00 8.70 0.20 44 1010.3
20260502004354 65 105 3.5 12.2 0.00 8.70 0.20 42 1010.2
20260502003831 65 43 2.6 10.4 0.00 8.70 0.20 44 1010.3
20260502003312 65 20 3.5 11.3 0.00 8.70 0.20 43 1010.2
20260502002848 65 30 6.1 12.2 0.00 8.70 0.20 42 1010.0
20260502002327 64 67 6.1 14.8 0.00 8.70 0.20 44 1009.8
20260502001827 64 84 5.2 17.4 0.00 9.41 0.20 44 1009.9
20260502001326 64 55 7.8 17.4 0.00 9.41 0.20 43 1009.8
20260502000846 63 53 2.6 13.0 0.00 9.41 0.20 45 1009.8
20260502000324 63 67 6.1 13.0 0.00 9.41 0.20 45 1009.8
20260501235821 63 59 5.2 11.3 0.00 9.41 0.20 45 1009.9
20260501235340 62 54 1.7 4.3 0.00 9.41 0.20 52 1009.7
20260501234818 62 43 0.9 3.5 0.00 9.41 0.20 54 1009.8
20260501234317 61 287 0.0 0.9 0.00 9.41 0.20 56 1009.6
20260501233814 60 58 0.0 0.0 0.00 9.41 0.20 58 1009.6
20260501233314 60 58 0.0 1.7 0.00 9.41 0.20 63 1009.7
20260501232813 60 49 0.0 1.7 0.00 9.41 0.20 63 1009.6
20260501232333 60 233 0.0 1.7 0.00 9.41 0.20 62 1009.7
20260501231832 60 346 0.0 1.7 0.00 9.49 0.20 62 1009.6
20260501231330 60 246 0.0 2.6 0.00 9.49 0.20 64 1009.6
20260501230849 60 231 0.0 3.5 0.00 9.49 0.20 62 1009.4
20260501230348 60 353 0.9 3.5 0.00 9.49 0.20 61 1009.5
20260501225846 59 63 0.0 2.6 0.00 9.49 0.20 64 1009.3
20260501225324 58 63 0.0 3.5 0.00 9.49 0.20 68 1009.2
20260501224822 58 356 1.7 3.5 0.00 9.49 0.20 66 1009.4
20260501224322 58 335 0.0 0.9 0.00 9.49 0.20 63 1009.3
20260501223841 57 342 0.0 0.9 0.00 9.49 0.20 68 1009.4
20260501223340 57 210 0.0 0.9 0.00 9.49 0.20 69 1009.4
20260501222817 57 333 0.0 0.9 0.00 9.49 0.20 69 1009.2
20260501222316 56 233 0.0 0.9 0.00 9.49 0.20 71 1009.2
20260501221817 56 64 0.0 0.9 0.00 9.76 0.20 70 1009.1
20260501221315 55 55 0.0 0.0 0.00 9.76 0.20 74 1009.3
20260501220833 55 55 0.0 0.0 0.00 9.76 0.20 77 1009.2
20260501220332 55 51 0.0 0.9 0.00 9.76 0.20 75 1009.1
20260501215831 55 51 0.0 1.7 0.00 9.76 0.20 78 1008.9
20260501215331 54 51 0.9 1.7 0.00 9.76 0.20 79 1008.9
20260501214829 53 255 0.0 0.9 0.00 9.76 0.20 81 1008.7
20260501214328 53 238 0.0 0.0 0.00 9.76 0.20 80 1008.6
20260501213825 52 238 0.0 0.0 0.00 9.76 0.20 81 1008.5
20260501213343 52 238 0.0 0.0 0.00 9.76 0.20 80 1008.5
20260501212821 53 238 0.0 1.7 0.00 9.76 0.20 80 1008.4
20260501212340 53 238 0.0 1.7 0.00 9.76 0.20 78 1008.5
20260501211818 53 353 0.0 0.9 0.00 9.76 0.20 78 1008.4
20260501211336 53 355 0.0 0.9 0.00 9.76 0.20 79 1008.4
20260501210813 53 354 0.0 3.5 0.00 9.76 0.20 80 1008.1
20260501210333 52 239 1.7 3.5 0.00 9.76 0.20 78 1008.2
20260501205831 52 195 0.0 1.7 0.00 9.76 0.20 78 1007.8
20260501205350 52 197 0.9 1.7 0.00 9.76 0.20 79 1007.7
20260501204826 52 199 0.0 0.9 0.00 9.76 0.20 80 1007.6
20260501204324 51 204 0.0 1.7 0.00 9.76 0.20 80 1007.6
20260501203823 51 212 0.0 1.7 0.00 9.76 0.20 79 1007.7
20260501203321 52 217 0.9 1.7 0.00 9.76 0.20 77 1007.8
20260501202823 52 56 0.0 4.3 0.00 9.76 0.20 76 1007.7
20260501202322 52 56 0.9 7.0 0.00 9.76 0.20 75 1007.5
20260501201842 51 4 1.7 4.3 0.00 9.76 0.20 78 1007.5
20260501201320 52 108 0.0 0.9 0.00 9.76 0.20 79 1007.4
20260501200818 52 195 0.0 1.7 0.00 9.76 0.20 76 1007.5
20260501200315 52 70 0.9 4.3 0.00 9.76 0.20 76 1007.3
20260501195812 52 38 1.7 4.3 0.00 9.76 0.20 77 1007.5
20260501195333 52 20 1.7 5.2 0.00 9.76 0.20 77 1007.4
20260501194831 53 255 1.7 7.0 0.00 9.76 0.20 77 1007.6
20260501194330 53 68 2.6 10.4 0.00 9.76 0.20 76 1007.3
20260501193827 51 31 3.5 10.4 0.00 9.76 0.20 82 1007.3
20260501193326 51 218 0.0 1.7 0.00 9.76 0.20 85 1007.1
20260501192825 52 217 0.0 1.7 0.00 9.76 0.20 84 1007.1
20260501192323 52 238 0.0 6.1 0.00 9.76 0.20 84 1006.9
20260501191842 52 101 1.7 6.1 0.00 9.84 0.20 83 1006.8
20260501191342 52 29 0.0 7.0 0.00 9.84 0.20 83 1007.0
20260501190818 53 24 1.7 11.3 0.00 9.84 0.20 83 1006.8
20260501190316 53 102 2.6 13.0 0.04 9.84 0.20 81 1006.6
20260501185815 54 43 0.9 18.2 0.04 9.84 0.20 79 1006.4
20260501185313 53 65 7.0 14.8 0.08 9.84 0.20 80 1006.3
20260501184832 53 21 7.0 16.5 0.12 9.84 0.20 82 1006.1
20260501184329 52 51 10.4 16.5 0.20 9.84 0.20 85 1006.2
20260501183827 51 49 4.3 10.4 0.24 9.84 0.20 91 1006.4
20260501183325 50 65 4.3 7.0 0.24 9.84 0.20 95 1006.4
20260501182823 50 87 0.9 6.1 0.28 9.84 0.20 95 1006.4
20260501182321 50 109 0.9 3.5 0.31 9.84 0.20 95 1006.3
20260501181323 51 68 0.0 1.7 0.39 9.88 0.20 95 1006.2
20260501180822 51 68 0.0 1.7 0.43 9.88 0.20 95 1006.5
20260501180320 51 82 0.0 0.9 0.43 9.84 0.19 95 1006.4
20260501175819 51 213 0.0 0.9 0.47 9.84 0.19 95 1006.5
20260501175337 51 213 0.0 0.9 0.47 9.80 0.18 95 1006.2
20260501174813 51 198 0.0 0.9 0.47 9.76 0.17 95 1005.9
20260501174352 51 51 0.0 0.9 0.39 9.69 0.16 95 1005.6
20260501173829 51 51 0.0 0.9 0.39 9.65 0.15 95 1005.4
20260501173328 50 39 0.0 2.6 0.43 9.65 0.15 95 1005.2
20260501172827 50 39 0.9 6.1 0.39 9.61 0.14 94 1005.0
20260501172323 51 70 3.5 6.1 0.39 9.57 0.13 94 1004.6
20260501171842 51 24 1.7 4.3 0.39 9.53 0.13 94 1004.3